FW1093 Weather Reports


time (UTC)temp
F
wind
direction
speed
knots
gust
knots
rain 1hr
in
rain 24hr
in
rain mn
in
humidity
%
barometer
mb
20260505204331 75 169 0.9 3.5 0.00 0.00 0.00 51 1008.5
20260505203319 75 185 0.9 7.8 0.00 0.00 0.00 52 1008.6
20260505202334 75 198 0.9 4.3 0.00 0.00 0.00 52 1008.6
20260505201323 76 198 0.9 4.3 0.00 0.00 0.00 51 1008.6
20260505200313 76 261 0.0 2.6 0.00 0.00 0.00 51 1008.7
20260505195328 76 217 0.0 1.7 0.00 0.00 0.00 50 1008.8
20260505194314 76 112 0.9 4.3 0.00 0.00 0.00 50 1008.9
20260505193330 77 142 1.7 4.3 0.00 0.00 0.00 48 1008.8
20260505192319 77 117 1.7 4.3 0.00 0.00 0.00 49 1008.9
20260505191315 77 183 0.0 4.3 0.00 0.00 0.00 50 1009.2
20260505190330 78 124 1.7 5.2 0.00 0.00 0.00 47 1009.3
20260505185316 79 261 0.9 4.3 0.00 0.00 0.00 48 1009.4
20260505184325 79 121 1.7 2.6 0.00 0.00 0.00 47 1009.5
20260505183315 79 110 1.7 5.2 0.00 0.00 0.00 48 1009.5
20260505182330 79 108 0.9 3.5 0.00 0.00 0.00 47 1009.5
20260505181318 79 278 0.9 4.3 0.00 0.00 0.00 46 1009.4
20260505180333 79 124 0.9 3.5 0.00 0.00 0.00 45 1009.5
20260505175322 79 180 0.9 3.5 0.00 0.00 0.00 48 1009.4
20260505174331 79 117 0.9 3.5 0.00 0.00 0.00 47 1009.5
20260505173323 79 247 0.0 5.2 0.00 0.00 0.00 50 1009.5
20260505172312 79 106 0.9 2.6 0.00 0.00 0.00 48 1009.6
20260505171329 79 186 1.7 4.3 0.00 0.00 0.00 48 1009.6
20260505170345 78 167 0.9 3.5 0.00 0.00 0.00 46 1009.6
20260505165312 78 120 0.9 5.2 0.00 0.00 0.00 48 1009.6
20260505164326 78 253 0.9 4.3 0.00 0.00 0.00 48 1009.8
20260505163315 78 320 0.9 2.6 0.00 0.00 0.00 47 1009.8
20260505162330 77 206 0.0 3.5 0.00 0.00 0.00 51 1010.4
20260505161319 77 163 0.9 2.6 0.00 0.00 0.00 51 1010.3
20260505160327 76 148 0.0 3.5 0.00 0.00 0.00 51 1010.4
20260505153314 75 123 0.0 1.7 0.00 0.00 0.00 51 1010.7
20260505152329 74 264 0.0 2.6 0.00 0.00 0.00 53 1011.0
20260505151315 74 165 0.0 2.6 0.00 0.00 0.00 55 1011.1
20260505150325 72 142 0.9 3.5 0.00 0.00 0.00 56 1011.2
20260505140324 64 122 0.0 1.7 0.00 0.00 0.00 72 1011.0
20260505124334 57 134 0.0 0.0 0.00 0.00 0.00 85 1010.8
20260505123322 57 127 0.0 0.0 0.00 0.00 0.00 83 1011.3
20260505122330 56 124 0.0 0.9 0.00 0.00 0.00 84 1011.5
20260505121339 56 124 0.0 0.9 0.00 0.00 0.00 86 1011.7
20260505120334 54 128 0.0 0.9 0.00 0.00 0.00 90 1011.7
20260505115325 53 127 0.0 0.9 0.00 0.00 0.00 91 1011.8
20260505114340 53 115 0.0 0.9 0.00 0.00 0.00 93 1011.7
20260505113329 52 146 0.0 0.0 0.00 0.00 0.00 93 1011.7
20260505112318 51 192 0.0 0.9 0.00 0.00 0.00 95 1011.8
20260505111325 50 285 0.0 0.0 0.00 0.00 0.00 95 1011.6
20260505110334 50 286 0.0 0.9 0.00 0.00 0.00 96 1011.5
20260505101322 47 188 0.0 0.0 0.00 0.00 0.00 94 1010.8
20260505100331 47 269 0.0 0.0 0.00 0.00 0.00 94 1010.6
20260505095319 47 269 0.0 0.0 0.00 0.00 0.00 94 1010.5
20260505094329 47 269 0.0 0.9 0.00 0.00 0.00 93 1010.6
20260505093337 48 269 0.0 0.0 0.00 0.00 0.00 94 1010.6
20260505092326 48 270 0.0 0.0 0.00 0.00 0.00 94 1010.4
20260505091313 47 270 0.0 0.0 0.00 0.00 0.00 93 1010.6
20260505090329 47 270 0.0 0.0 0.00 0.00 0.00 92 1010.5
20260505085338 47 270 0.0 0.0 0.00 0.00 0.00 92 1010.4
20260505084347 47 270 0.0 0.0 0.00 0.00 0.00 92 1010.5
20260505083314 47 270 0.0 0.0 0.00 0.00 0.00 92 1010.5
20260505082323 47 269 0.0 0.0 0.00 0.00 0.00 92 1010.7
20260505081313 47 270 0.0 0.0 0.00 0.00 0.00 91 1010.6
20260505080328 47 269 0.0 0.0 0.00 0.00 0.00 91 1010.7
20260505075336 47 270 0.0 0.0 0.00 0.00 0.00 91 1010.6
20260505074326 47 270 0.0 0.0 0.00 0.00 0.00 90 1010.7
20260505073343 47 270 0.0 0.0 0.00 0.00 0.00 91 1010.6
20260505072329 47 270 0.0 0.0 0.00 0.00 0.00 90 1010.6
20260505071319 47 270 0.0 0.0 0.00 0.00 0.00 89 1010.6
20260505070337 47 269 0.0 0.0 0.00 0.00 0.00 88 1010.6
20260505065325 47 270 0.0 0.0 0.00 0.00 0.00 88 1010.6
20260505064313 48 270 0.0 0.0 0.00 0.00 0.00 87 1010.6
20260505063348 48 270 0.0 0.9 0.00 0.00 0.00 87 1010.7
20260505062334 48 270 0.0 0.0 0.00 0.00 0.00 86 1010.7
20260505061329 49 270 0.0 0.0 0.00 0.00 0.00 86 1010.7
20260505060335 49 270 0.0 0.0 0.00 0.00 0.00 86 1010.7
20260505055316 49 269 0.0 0.0 0.00 0.00 0.00 85 1010.8
20260505054324 49 270 0.0 0.0 0.00 0.00 0.00 84 1010.9
20260505053312 49 270 0.0 0.0 0.00 0.00 0.00 83 1011.0
20260505052327 50 270 0.0 0.0 0.00 0.00 0.00 82 1011.0
20260505051315 50 269 0.0 0.0 0.00 0.00 0.00 81 1011.0
20260505050321 51 270 0.0 0.0 0.00 0.00 0.00 80 1011.1
20260505041326 52 136 0.0 0.0 0.00 0.00 0.00 79 1011.4
20260505040333 52 136 0.0 0.9 0.00 0.00 0.00 78 1011.4
20260505035316 52 136 0.0 0.0 0.00 0.00 0.00 78 1011.3
20260505034332 52 134 0.0 0.0 0.00 0.00 0.00 78 1011.4
20260505033323 52 134 0.0 0.9 0.00 0.00 0.00 78 1011.2
20260505032330 52 134 0.0 0.0 0.00 0.00 0.00 77 1011.3
20260505031318 52 134 0.0 0.9 0.00 0.00 0.00 77 1011.4
20260505030326 53 134 0.0 0.9 0.00 0.00 0.00 77 1011.4
20260505025316 53 134 0.0 0.9 0.00 0.00 0.00 76 1011.4
20260505024350 53 134 0.0 0.9 0.00 0.00 0.00 76 1011.3
20260505023317 53 153 0.0 0.0 0.00 0.00 0.00 75 1011.3
20260505022327 54 153 0.0 0.0 0.00 0.00 0.00 74 1011.5
20260505021317 54 153 0.0 0.9 0.00 0.00 0.00 73 1011.5
20260505020327 54 122 0.0 1.7 0.00 0.00 0.00 73 1011.5
20260505015336 54 238 0.0 0.9 0.00 0.00 0.00 73 1011.4
20260505014323 55 163 0.0 1.7 0.00 0.00 0.00 72 1011.3
20260505013312 55 139 0.0 0.9 0.00 0.00 0.00 71 1011.2
20260505011350 56 212 0.0 0.9 0.00 0.00 0.00 68 1011.2
20260505010319 56 214 0.0 1.7 0.00 0.00 0.00 67 1010.9
20260505005334 57 96 0.9 2.6 0.00 0.00 0.00 65 1010.7
20260505004330 57 122 0.0 1.7 0.00 0.00 0.00 64 1010.6
20260505003319 58 153 0.0 2.6 0.00 0.00 0.00 62 1010.6
20260505002327 58 145 0.0 1.7 0.00 0.00 0.00 61 1010.4
20260505001316 59 71 0.0 3.5 0.00 0.00 0.00 59 1010.3
20260505000330 59 162 0.0 3.5 0.00 0.00 0.00 58 1010.1
20260504235319 60 158 0.0 3.5 0.00 0.00 0.00 55 1009.8
20260504234313 61 134 0.9 3.5 0.00 0.00 0.00 53 1009.6
20260504233322 62 124 0.0 2.6 0.00 0.00 0.00 52 1009.7
20260504232338 63 130 1.7 7.8 0.00 0.00 0.00 50 1009.5
20260504231324 63 193 0.9 2.6 0.00 0.00 0.00 50 1009.2
20260504230335 64 139 0.0 5.2 0.00 0.00 0.00 50 1009.2
20260504225346 65 255 0.0 6.1 0.00 0.00 0.00 49 1009.2
20260504224318 66 160 0.0 1.7 0.00 0.00 0.00 48 1009.1
20260504223326 66 142 0.9 5.2 0.00 0.00 0.00 46 1009.0
20260504222316 68 141 0.9 4.3 0.00 0.00 0.00 44 1009.3
20260504221332 69 132 0.0 4.3 0.00 0.00 0.00 43 1009.3
20260504220316 69 359 0.0 2.6 0.00 0.00 0.00 43 1009.4
20260504215326 69 224 0.9 5.2 0.00 0.00 0.00 43 1009.5
20260504214336 69 26 0.9 4.3 0.00 0.00 0.00 43 1009.5
20260504213325 69 312 0.9 6.1 0.00 0.00 0.00 42 1009.3
20260504212341 69 150 1.7 4.3 0.00 0.00 0.00 41 1009.4
20260504211329 70 274 1.7 6.1 0.00 0.00 0.00 39 1009.4
20260504210319 71 165 1.7 4.3 0.00 0.00 0.00 39 1009.2
20260504205327 72 149 0.9 3.5 0.00 0.00 0.00 37 1009.2